Home > Time Zones > World Clock > Weather > Japan > Tokyo > Past weeks

Flag for Japan Weather past 2 weeks in Tokyo, Japan

Now
64 °F

Mild.


Feels Like: 64 °F
Forecast: 61 / 72 °F
Wind: 6 mph from North

Location: Tokyo

Current Time: Sep 21, 2014 at 8:12:23 AM

Latest Report: Sep 21, 2014 at 7:00 AM


Visibility: N/A

Pressure: 30.06 "Hg

Humidity: 69%

Dew point: 54 °F

Location of TokyoLocation

Historic Weather in Tokyo — Graph

°F

Tokyo temperature yesterday

Maximum temperature yesterday: 71 °F (at 12:00 AM)
Minimum temperature yesterday: 67 °F (at 5:00 AM)
Average temperature yesterday: 69 °F

Past Weeks' High & Low Weather Summary

 TemperatureHumidityPressure
High87 °F (Sep 6, 1:00 PM)95% (Sep 6, 11:00 PM)30.03 "Hg (Sep 6, 11:00 PM)
Low62 °F (Sep 21, 6:00 AM)29% (Sep 18, 7:00 PM)29.63 "Hg (Sep 9, 2:00 PM)
Average74 °F69%29.85 "Hg
* Reported Sep 6 6:00 AM — Sep 21 6:00 AM, Tokyo, Weather by CustomWeather, © 2014

Note: Actual official high and low records may vary slightly from our data, if they occured in-between our weather recording intervals... More about our weather records

Advertising

Tokyo weather history for previous 24 hours

 ConditionsComfort  
Time TempWeatherWind HumidityBarometerVisibility
6:00 AM
Sep 21
62 °FOvercast.7 mph74%30.03 "Hg12 mi
5:00 AM62 °FCool.5 mph73%30.01 "HgN/A
4:00 AM62 °FMild.7 mph72%29.99 "HgN/A
3:00 AM63 °FPassing clouds.3 mph72%29.98 "Hg12 mi
2:00 AM64 °FMild.7 mph71%29.98 "HgN/A
10:00 PM
Sep 20
68 °FMild.3 mph71%29.99 "HgN/A
9:00 PM69 °FOvercast.3 mph70%29.99 "Hg12 mi
8:00 PM69 °FMild.5 mph69%29.99 "HgN/A
7:00 PM69 °FMild.7 mph68%29.96 "HgN/A
6:00 PM69 °FOvercast.5 mph68%29.94 "Hg12 mi
5:00 PM70 °FMild.6 mph67%29.93 "HgN/A
4:00 PM70 °FMild.5 mph64%29.92 "HgN/A
3:00 PM70 °FLight rain. Overcast.6 mph62%29.92 "Hg12 mi
2:00 PM70 °FMild.5 mph62%29.92 "HgN/A
1:00 PM70 °FMild.6 mph60%29.96 "HgN/A
12:00 PM70 °FOvercast.6 mph62%29.96 "Hg12 mi
11:00 AM69 °FMild.5 mph63%29.96 "HgN/A
10:00 AM69 °FMild.5 mph59%29.97 "HgN/A
9:00 AM69 °FOvercast.3 mph58%29.98 "Hg12 mi
8:00 AM69 °FMild.2 mph54%29.96 "HgN/A
Weather by CustomWeather, © 2014

See weather overviewHow to use our weather pages